GCAMB EGHQ-EGHH

Flight info

Callsign GCAMB
Flight time 1h 20m
Altitude
Route
Aircraft C172

Departure

Time 2026-05-05 18:07
Airport Cornwall Airport Newquay (EGHQ)

Arrival

Time 2026-05-05 19:27
Airport Bournemouth Airport (EGHH)
Time Latitude Longitude Altitude Speed Heading
2026-05-05 17:57 50.43737 -4.99544 393 ft 5 kts 71°
2026-05-05 17:57 50.43767 -4.99517 393 ft 4 kts 358°
2026-05-05 17:57 50.43801 -4.99519 393 ft 5 kts
2026-05-05 17:58 50.43832 -4.99517 393 ft 2 kts
2026-05-05 17:58 50.43843 -4.99517 393 ft 3 kts
2026-05-05 17:58 50.43897 -4.99516 393 ft 2 kts
2026-05-05 17:58 50.43901 -4.99515 393 ft 0 kts
2026-05-05 18:03 50.43943 -4.99511 393 ft 9 kts
2026-05-05 18:04 50.44025 -4.99496 393 ft 9 kts 19°
2026-05-05 18:04 50.44073 -4.99529 393 ft 0 kts 301°
2026-05-05 18:04 50.44075 -4.99533 393 ft 0 kts 301°
2026-05-05 18:04 50.44076 -4.99537 393 ft 0 kts 301°
2026-05-05 18:05 50.44078 -4.99540 393 ft 0 kts 301°
2026-05-05 18:06 50.44078 -4.99541 393 ft 0 kts 301°
2026-05-05 18:06 50.44255 -4.99993 394 ft 70 kts 303°
2026-05-05 18:06 50.44513 -5.00733 608 ft 80 kts 301°
2026-05-05 18:07 50.44762 -5.01466 915 ft 75 kts 302°
2026-05-05 18:07 50.45117 -5.01947 1218 ft 67 kts 342°
2026-05-05 18:07 50.45603 -5.02018 1443 ft 73 kts 12°
2026-05-05 18:07 50.45958 -5.01447 1613 ft 87 kts 71°
2026-05-05 18:08 50.45873 -5.00539 1870 ft 85 kts 112°
2026-05-05 18:08 50.45557 -4.99696 1989 ft 96 kts 116°
2026-05-05 18:08 50.45225 -4.98722 2047 ft 102 kts 116°
2026-05-05 18:08 50.44870 -4.97805 2207 ft 96 kts 121°
2026-05-05 18:09 50.44482 -4.96941 2301 ft 100 kts 122°
2026-05-05 18:09 50.44089 -4.96031 2423 ft 98 kts 116°
2026-05-05 18:09 50.43889 -4.95024 2511 ft 99 kts 92°
2026-05-05 18:09 50.43820 -4.93914 2565 ft 103 kts 90°
2026-05-05 18:10 50.43801 -4.92814 2678 ft 101 kts 85°
2026-05-05 18:10 50.43802 -4.91629 2540 ft 113 kts 86°
2026-05-05 18:10 50.43771 -4.90411 2513 ft 111 kts 91°
2026-05-05 18:10 50.43684 -4.89220 2510 ft 108 kts 95°
2026-05-05 18:11 50.43570 -4.88072 2510 ft 106 kts 95°
2026-05-05 18:11 50.43455 -4.86934 2510 ft 104 kts 95°
2026-05-05 18:11 50.43339 -4.85807 2510 ft 104 kts 95°
2026-05-05 18:11 50.43225 -4.84685 2510 ft 103 kts 95°
2026-05-05 18:12 50.43111 -4.83580 2510 ft 103 kts 96°
2026-05-05 18:12 50.42997 -4.82475 2510 ft 103 kts 95°
2026-05-05 18:12 50.42883 -4.81357 2510 ft 103 kts 95°
2026-05-05 18:12 50.42768 -4.80246 2511 ft 105 kts 95°
2026-05-05 18:13 50.42648 -4.79075 2511 ft 108 kts 96°
2026-05-05 18:13 50.42529 -4.77911 2511 ft 110 kts 96°
2026-05-05 18:13 50.42407 -4.76718 2511 ft 111 kts 96°
2026-05-05 18:13 50.42283 -4.75514 2510 ft 111 kts 96°
2026-05-05 18:14 50.42160 -4.74313 2510 ft 111 kts 96°
2026-05-05 18:14 50.42038 -4.73121 2510 ft 112 kts 95°
2026-05-05 18:14 50.41928 -4.71915 2510 ft 112 kts 95°
2026-05-05 18:14 50.41815 -4.70709 2510 ft 112 kts 95°
2026-05-05 18:15 50.41703 -4.69488 2510 ft 112 kts 95°
2026-05-05 18:15 50.41592 -4.68284 2510 ft 112 kts 95°
2026-05-05 18:15 50.41478 -4.67077 2510 ft 112 kts 95°
2026-05-05 18:15 50.41369 -4.65878 2510 ft 112 kts 95°
2026-05-05 18:16 50.41253 -4.64661 2510 ft 112 kts 95°
2026-05-05 18:16 50.41141 -4.63459 2510 ft 112 kts 95°
2026-05-05 18:16 50.41027 -4.62247 2510 ft 112 kts 95°
2026-05-05 18:16 50.40913 -4.61054 2510 ft 112 kts 95°
2026-05-05 18:17 50.40800 -4.59839 2510 ft 112 kts 95°
2026-05-05 18:17 50.40684 -4.58640 2510 ft 112 kts 95°
2026-05-05 18:17 50.40570 -4.57425 2510 ft 112 kts 95°
2026-05-05 18:17 50.40453 -4.56219 2510 ft 112 kts 95°
2026-05-05 18:18 50.40339 -4.55015 2510 ft 112 kts 95°
2026-05-05 18:18 50.40221 -4.53803 2510 ft 112 kts 95°
2026-05-05 18:18 50.40106 -4.52594 2510 ft 112 kts 95°
2026-05-05 18:18 50.39988 -4.51388 2510 ft 112 kts 95°
2026-05-05 18:19 50.39871 -4.50185 2510 ft 112 kts 95°
2026-05-05 18:19 50.39756 -4.48986 2510 ft 112 kts 95°
2026-05-05 18:19 50.39641 -4.47774 2510 ft 111 kts 92°
2026-05-05 18:19 50.39630 -4.46568 2510 ft 111 kts 84°
2026-05-05 18:20 50.39672 -4.45363 2510 ft 110 kts 83°
2026-05-05 18:20 50.39700 -4.44554 2510 ft 110 kts 83°
2026-05-05 18:20 50.39758 -4.42948 2510 ft 110 kts 83°
2026-05-05 18:20 50.39799 -4.41752 2510 ft 110 kts 83°
2026-05-05 18:21 50.39880 -4.40538 2433 ft 117 kts 78°
2026-05-05 18:21 50.39999 -4.39240 2325 ft 120 kts 78°
2026-05-05 18:21 50.40118 -4.37950 2311 ft 116 kts 78°
2026-05-05 18:21 50.40231 -4.36714 2310 ft 114 kts 78°
2026-05-05 18:22 50.40343 -4.35489 2310 ft 112 kts 78°
2026-05-05 18:22 50.40452 -4.34290 2310 ft 111 kts 79°
2026-05-05 18:22 50.40563 -4.33083 2310 ft 111 kts 79°
2026-05-05 18:22 50.40665 -4.31933 2310 ft 111 kts 79°
2026-05-05 18:23 50.40774 -4.30738 2310 ft 110 kts 79°
2026-05-05 18:23 50.40879 -4.29538 2310 ft 110 kts 79°
2026-05-05 18:23 50.40986 -4.28352 2310 ft 110 kts 79°
2026-05-05 18:23 50.41110 -4.27161 2310 ft 110 kts 77°
2026-05-05 18:24 50.41242 -4.25971 2310 ft 110 kts 77°
2026-05-05 18:24 50.41373 -4.24794 2310 ft 110 kts 77°
2026-05-05 18:24 50.41503 -4.23607 2310 ft 110 kts 77°
2026-05-05 18:24 50.41635 -4.22419 2310 ft 110 kts 77°
2026-05-05 18:25 50.41766 -4.21227 2310 ft 110 kts 77°
2026-05-05 18:25 50.41808 -4.20837 2310 ft 110 kts 77°
2026-05-05 18:25 50.42027 -4.18851 2310 ft 110 kts 77°
2026-05-05 18:25 50.42154 -4.17672 2310 ft 110 kts 77°
2026-05-05 18:26 50.42288 -4.16465 2232 ft 116 kts 77°
2026-05-05 18:26 50.42424 -4.15219 2212 ft 115 kts 77°
2026-05-05 18:26 50.42559 -4.13985 2210 ft 113 kts 77°
2026-05-05 18:26 50.42691 -4.12781 2210 ft 112 kts 77°
2026-05-05 18:27 50.42822 -4.11578 2210 ft 111 kts 77°
2026-05-05 18:27 50.42950 -4.10384 2210 ft 111 kts 77°
2026-05-05 18:27 50.43077 -4.09192 2210 ft 110 kts 77°
2026-05-05 18:27 50.43205 -4.08008 2210 ft 110 kts 77°
2026-05-05 18:28 50.43509 -4.05656 2210 ft 110 kts 72°
2026-05-05 18:28 50.43698 -4.04501 2270 ft 104 kts 72°
2026-05-05 18:28 50.43895 -4.03469 2390 ft 97 kts 67°
2026-05-05 18:29 50.44193 -4.02506 2409 ft 100 kts 58°
2026-05-05 18:29 50.44540 -4.01541 2411 ft 103 kts 57°
2026-05-05 18:29 50.44899 -4.00555 2411 ft 105 kts 57°
2026-05-05 18:29 50.45262 -3.99553 2411 ft 107 kts 57°
2026-05-05 18:30 50.45634 -3.98529 2410 ft 107 kts 57°
2026-05-05 18:30 50.46002 -3.97517 2411 ft 107 kts 57°
2026-05-05 18:30 50.46373 -3.96495 2407 ft 107 kts 57°
2026-05-05 18:30 50.46742 -3.95476 2408 ft 107 kts 57°
2026-05-05 18:31 50.47112 -3.94452 2408 ft 107 kts 57°
2026-05-05 18:31 50.47481 -3.93430 2409 ft 107 kts 57°
2026-05-05 18:31 50.47852 -3.92404 2410 ft 108 kts 57°
2026-05-05 18:31 50.48225 -3.91369 2410 ft 108 kts 57°
2026-05-05 18:32 50.48596 -3.90340 2410 ft 108 kts 57°
2026-05-05 18:32 50.48964 -3.89317 2410 ft 108 kts 57°
2026-05-05 18:32 50.49337 -3.88281 2411 ft 108 kts 57°
2026-05-05 18:32 50.49706 -3.87255 2410 ft 108 kts 57°
2026-05-05 18:33 50.50074 -3.86227 2411 ft 108 kts 57°
2026-05-05 18:33 50.50444 -3.85196 2410 ft 108 kts 57°
2026-05-05 18:33 50.50811 -3.84172 2410 ft 108 kts 58°
2026-05-05 18:33 50.51178 -3.83146 2410 ft 108 kts 58°
2026-05-05 18:34 50.51551 -3.82101 2410 ft 108 kts 58°
2026-05-05 18:34 50.51561 -3.82071 2410 ft 108 kts 58°
2026-05-05 18:35 50.51642 -3.81844 2410 ft 108 kts 58°
2026-05-05 18:35 50.52010 -3.80811 2410 ft 108 kts 58°
2026-05-05 18:35 50.52379 -3.79780 2368 ft 112 kts 58°
2026-05-05 18:35 50.52794 -3.78660 2193 ft 122 kts 54°
2026-05-05 18:36 50.53315 -3.77591 2042 ft 124 kts 46°
2026-05-05 18:36 50.53886 -3.76632 2013 ft 117 kts 43°
2026-05-05 18:36 50.54445 -3.75747 2008 ft 113 kts 43°
2026-05-05 18:36 50.54991 -3.74876 2009 ft 110 kts 43°
2026-05-05 18:37 50.55526 -3.74032 2010 ft 109 kts 43°
2026-05-05 18:37 50.56055 -3.73186 2010 ft 108 kts 43°
2026-05-05 18:37 50.56585 -3.72343 2010 ft 108 kts 43°
2026-05-05 18:37 50.57117 -3.71497 2010 ft 107 kts 43°
2026-05-05 18:38 50.57638 -3.70662 2010 ft 107 kts 43°
2026-05-05 18:38 50.58164 -3.69825 2010 ft 106 kts 41°
2026-05-05 18:38 50.58694 -3.69034 2010 ft 106 kts 41°
2026-05-05 18:38 50.59232 -3.68233 2010 ft 106 kts 41°
2026-05-05 18:39 50.59773 -3.67426 2010 ft 106 kts 41°
2026-05-05 18:39 50.60307 -3.66629 2010 ft 106 kts 41°
2026-05-05 18:39 50.60844 -3.65826 2010 ft 106 kts 41°
2026-05-05 18:39 50.61379 -3.65026 2010 ft 106 kts 41°
2026-05-05 18:40 50.61919 -3.64218 2010 ft 106 kts 41°
2026-05-05 18:40 50.62450 -3.63423 2010 ft 106 kts 41°
2026-05-05 18:40 50.62995 -3.62618 1940 ft 112 kts 36°
2026-05-05 18:40 50.63755 -3.62273 1777 ft 118 kts 355°
2026-05-05 18:41 50.64563 -3.62524 1629 ft 121 kts 346°
2026-05-05 18:41 50.65384 -3.62850 1524 ft 119 kts 346°
2026-05-05 18:41 50.66178 -3.63168 1472 ft 114 kts 346°
2026-05-05 18:41 50.66936 -3.63475 1425 ft 112 kts 346°
2026-05-05 18:42 50.67672 -3.63774 1410 ft 108 kts 346°
2026-05-05 18:42 50.68386 -3.64064 1408 ft 105 kts 346°
2026-05-05 18:42 50.69083 -3.63931 1402 ft 99 kts 27°
2026-05-05 18:42 50.69544 -3.63077 1253 ft 107 kts 62°
2026-05-05 18:43 50.69807 -3.62023 1205 ft 99 kts 67°
2026-05-05 18:43 50.70029 -3.61057 1207 ft 90 kts 58°
2026-05-05 18:43 50.70355 -3.60199 1190 ft 92 kts 58°
2026-05-05 18:43 50.70592 -3.59243 1210 ft 93 kts 72°
2026-05-05 18:44 50.70728 -3.58238 1263 ft 93 kts 75°
2026-05-05 18:44 50.70853 -3.57231 1363 ft 95 kts 74°
2026-05-05 18:44 50.71009 -3.56222 1515 ft 96 kts 68°
2026-05-05 18:44 50.71225 -3.55242 1650 ft 93 kts 67°
2026-05-05 18:45 50.71389 -3.54257 1625 ft 95 kts 73°
2026-05-05 18:45 50.71549 -3.53192 1492 ft 103 kts 73°
2026-05-05 18:45 50.71715 -3.52107 1359 ft 106 kts 72°
2026-05-05 18:45 50.71885 -3.50975 1226 ft 105 kts 73°
2026-05-05 18:46 50.72056 -3.49846 1060 ft 103 kts 72°
2026-05-05 18:46 50.72233 -3.48810 947 ft 88 kts 70°
2026-05-05 18:46 50.72390 -3.47972 836 ft 77 kts 68°
2026-05-05 18:46 50.72523 -3.47145 676 ft 77 kts 73°
2026-05-05 18:47 50.72624 -3.46415 590 ft 65 kts 70°
2026-05-05 18:47 50.72744 -3.45725 514 ft 65 kts 69°
2026-05-05 18:47 50.72851 -3.45048 481 ft 62 kts 73°
2026-05-05 18:47 50.72942 -3.44373 435 ft 63 kts 70°
2026-05-05 18:48 50.73067 -3.43703 328 ft 64 kts 70°
2026-05-05 18:48 50.73176 -3.42996 197 ft 64 kts 70°
2026-05-05 18:48 50.73274 -3.42370 109 ft 52 kts 72°
2026-05-05 18:48 50.73382 -3.41755 184 ft 64 kts 69°
2026-05-05 18:49 50.73529 -3.40977 337 ft 81 kts 68°
2026-05-05 18:49 50.73645 -3.40106 631 ft 81 kts 80°
2026-05-05 18:49 50.73656 -3.39260 925 ft 79 kts 85°
2026-05-05 18:49 50.73655 -3.38367 1188 ft 81 kts 83°
2026-05-05 18:50 50.73647 -3.37487 1434 ft 82 kts 92°
2026-05-05 18:50 50.73474 -3.36615 1679 ft 85 kts 108°
2026-05-05 18:50 50.73368 -3.35720 1929 ft 83 kts 89°
2026-05-05 18:50 50.73341 -3.34810 2178 ft 83 kts 88°
2026-05-05 18:51 50.73318 -3.33905 2425 ft 82 kts 88°
2026-05-05 18:51 50.73298 -3.32855 2375 ft 111 kts 88°
2026-05-05 18:51 50.73278 -3.31601 2204 ft 119 kts 89°
2026-05-05 18:51 50.73260 -3.30248 2028 ft 124 kts 88°
2026-05-05 18:52 50.73242 -3.28874 1852 ft 126 kts 89°
2026-05-05 18:52 50.73224 -3.27485 1695 ft 125 kts 89°
2026-05-05 18:52 50.73210 -3.26256 1853 ft 103 kts 86°
2026-05-05 18:52 50.73220 -3.25203 1984 ft 91 kts 85°
2026-05-05 18:53 50.73231 -3.24176 2011 ft 101 kts 85°
2026-05-05 18:53 50.73251 -3.22950 2012 ft 115 kts 85°
2026-05-05 18:53 50.73273 -3.21677 2011 ft 118 kts 85°
2026-05-05 18:53 50.73296 -3.20374 2010 ft 119 kts 85°
2026-05-05 18:54 50.73318 -3.19060 2010 ft 119 kts 85°
2026-05-05 18:54 50.73340 -3.17759 2010 ft 119 kts 85°
2026-05-05 18:54 50.73362 -3.16434 2010 ft 119 kts 85°
2026-05-05 18:54 50.73383 -3.15134 2010 ft 119 kts 85°
2026-05-05 18:55 50.73404 -3.13817 2010 ft 119 kts 85°
2026-05-05 18:55 50.73426 -3.12506 2010 ft 119 kts 84°
2026-05-05 18:55 50.73509 -3.11212 2010 ft 119 kts 80°
2026-05-05 18:55 50.73616 -3.09903 2010 ft 119 kts 79°
2026-05-05 18:56 50.73722 -3.08612 2010 ft 119 kts 79°
2026-05-05 18:56 50.73827 -3.07318 2010 ft 119 kts 79°
2026-05-05 18:56 50.73931 -3.06029 2010 ft 119 kts 80°
2026-05-05 18:56 50.74037 -3.04738 2010 ft 119 kts 79°
2026-05-05 18:57 50.74143 -3.03431 2010 ft 119 kts 79°
2026-05-05 18:57 50.74247 -3.02148 2010 ft 119 kts 79°
2026-05-05 18:57 50.74351 -3.00847 2010 ft 119 kts 80°
2026-05-05 18:57 50.74455 -2.99546 2010 ft 119 kts 80°
2026-05-05 18:58 50.74558 -2.98256 2010 ft 118 kts 80°
2026-05-05 18:58 50.74653 -2.97006 2009 ft 112 kts 80°
2026-05-05 18:58 50.74745 -2.95802 2009 ft 109 kts 80°
2026-05-05 18:58 50.74834 -2.94619 2009 ft 106 kts 80°
2026-05-05 18:59 50.74919 -2.93483 2009 ft 104 kts 80°
2026-05-05 18:59 50.75002 -2.92350 2009 ft 102 kts 80°
2026-05-05 18:59 50.75084 -2.91238 2010 ft 101 kts 80°
2026-05-05 18:59 50.75164 -2.90135 2010 ft 101 kts 80°
2026-05-05 19:00 50.75244 -2.89035 2010 ft 100 kts 80°
2026-05-05 19:00 50.75311 -2.87927 2010 ft 101 kts 83°
2026-05-05 19:00 50.75343 -2.86829 2010 ft 101 kts 84°
2026-05-05 19:00 50.75372 -2.85713 2010 ft 101 kts 84°
2026-05-05 19:01 50.75401 -2.84613 2010 ft 100 kts 84°
2026-05-05 19:01 50.75431 -2.83510 2010 ft 100 kts 84°
2026-05-05 19:01 50.75457 -2.82409 2010 ft 100 kts 84°
2026-05-05 19:01 50.75485 -2.81302 2010 ft 100 kts 84°
2026-05-05 19:02 50.75510 -2.80194 2010 ft 101 kts 86°
2026-05-05 19:02 50.75485 -2.79077 2010 ft 102 kts 89°
2026-05-05 19:02 50.75409 -2.77956 2010 ft 105 kts 95°
2026-05-05 19:02 50.75297 -2.76783 2010 ft 108 kts 95°
2026-05-05 19:03 50.75185 -2.75594 2010 ft 111 kts 95°
2026-05-05 19:03 50.74909 -2.74423 2010 ft 115 kts 113°
2026-05-05 19:03 50.74544 -2.73293 2010 ft 116 kts 114°
2026-05-05 19:03 50.74176 -2.72162 2010 ft 116 kts 114°
2026-05-05 19:04 50.73817 -2.71016 2010 ft 116 kts 112°
2026-05-05 19:04 50.73466 -2.69851 2010 ft 116 kts 112°
2026-05-05 19:04 50.73119 -2.68696 2010 ft 117 kts 112°
2026-05-05 19:04 50.72791 -2.67523 2010 ft 116 kts 110°
2026-05-05 19:05 50.72467 -2.66349 2010 ft 116 kts 110°
2026-05-05 19:05 50.72147 -2.65176 2010 ft 116 kts 109°
2026-05-05 19:05 50.71849 -2.63991 2010 ft 116 kts 108°
2026-05-05 19:05 50.71551 -2.62805 2010 ft 116 kts 108°
2026-05-05 19:06 50.71253 -2.61620 2010 ft 116 kts 108°
2026-05-05 19:06 50.70952 -2.60422 2010 ft 116 kts 107°
2026-05-05 19:06 50.70686 -2.59215 2010 ft 116 kts 105°
2026-05-05 19:06 50.70429 -2.58024 2010 ft 116 kts 105°
2026-05-05 19:07 50.70164 -2.56799 2010 ft 116 kts 105°
2026-05-05 19:07 50.69898 -2.55561 1884 ft 125 kts 105°
2026-05-05 19:07 50.69639 -2.54240 1817 ft 124 kts 103°
2026-05-05 19:07 50.69407 -2.52950 1810 ft 121 kts 103°
2026-05-05 19:08 50.69201 -2.51682 1810 ft 118 kts 99°
2026-05-05 19:08 50.69029 -2.50433 1810 ft 117 kts 98°
2026-05-05 19:08 50.68858 -2.49165 1810 ft 116 kts 98°
2026-05-05 19:08 50.68690 -2.47923 1810 ft 116 kts 98°
2026-05-05 19:09 50.68520 -2.46676 1810 ft 116 kts 98°
2026-05-05 19:09 50.68351 -2.45431 1810 ft 116 kts 98°
2026-05-05 19:09 50.68181 -2.44184 1769 ft 119 kts 98°
2026-05-05 19:09 50.68003 -2.42877 1688 ft 122 kts 99°
2026-05-05 19:10 50.67827 -2.41586 1699 ft 118 kts 98°
2026-05-05 19:10 50.67656 -2.40328 1701 ft 117 kts 99°
2026-05-05 19:10 50.67482 -2.39079 1701 ft 116 kts 98°
2026-05-05 19:10 50.67313 -2.37832 1701 ft 116 kts 98°
2026-05-05 19:11 50.67144 -2.36603 1701 ft 116 kts 97°
2026-05-05 19:11 50.67020 -2.35452 1701 ft 115 kts 96°
2026-05-05 19:11 50.66928 -2.34590 1701 ft 115 kts 97°
2026-05-05 19:12 50.66800 -2.33374 1701 ft 115 kts 96°
2026-05-05 19:12 50.66669 -2.32118 1701 ft 115 kts 97°
2026-05-05 19:12 50.66536 -2.30876 1701 ft 115 kts 96°
2026-05-05 19:12 50.66406 -2.29623 1701 ft 115 kts 96°
2026-05-05 19:13 50.66273 -2.28378 1701 ft 115 kts 97°
2026-05-05 19:13 50.66138 -2.27114 1701 ft 115 kts 96°
2026-05-05 19:13 50.66007 -2.25864 1701 ft 115 kts 97°
2026-05-05 19:13 50.65873 -2.24652 1700 ft 109 kts 97°
2026-05-05 19:14 50.65746 -2.23489 1701 ft 105 kts 97°
2026-05-05 19:14 50.65621 -2.22361 1701 ft 103 kts 97°
2026-05-05 19:14 50.65514 -2.21259 1701 ft 102 kts 95°
2026-05-05 19:14 50.65414 -2.20161 1701 ft 101 kts 95°
2026-05-05 19:15 50.65314 -2.19064 1701 ft 100 kts 95°
2026-05-05 19:15 50.65216 -2.17971 1701 ft 100 kts 95°
2026-05-05 19:15 50.65115 -2.16875 1702 ft 101 kts 95°
2026-05-05 19:15 50.65017 -2.15776 1702 ft 103 kts 95°
2026-05-05 19:16 50.64914 -2.14661 1702 ft 104 kts 95°
2026-05-05 19:16 50.64824 -2.13515 1702 ft 104 kts 90°
2026-05-05 19:16 50.64832 -2.12399 1701 ft 101 kts 82°
2026-05-05 19:16 50.64888 -2.11291 1701 ft 100 kts 82°
2026-05-05 19:17 50.64944 -2.10199 1701 ft 100 kts 82°
2026-05-05 19:17 50.65004 -2.09084 1703 ft 105 kts 82°
2026-05-05 19:17 50.65083 -2.07914 1702 ft 108 kts 77°
2026-05-05 19:17 50.65221 -2.06746 1702 ft 109 kts 76°
2026-05-05 19:18 50.65367 -2.05557 1702 ft 110 kts 76°
2026-05-05 19:18 50.65512 -2.04378 1702 ft 110 kts 76°
2026-05-05 19:18 50.65676 -2.03195 1701 ft 109 kts 72°
2026-05-05 19:18 50.65868 -2.02048 1701 ft 108 kts 72°
2026-05-05 19:19 50.66063 -2.00893 1701 ft 108 kts 72°
2026-05-05 19:19 50.66256 -1.99749 1701 ft 108 kts 72°
2026-05-05 19:19 50.66449 -1.98598 1701 ft 108 kts 72°
2026-05-05 19:19 50.66639 -1.97462 1701 ft 107 kts 72°
2026-05-05 19:20 50.66830 -1.96315 1701 ft 107 kts 72°
2026-05-05 19:20 50.67107 -1.95244 1698 ft 105 kts 49°
2026-05-05 19:20 50.67725 -1.94704 1698 ft 103 kts
2026-05-05 19:20 50.68432 -1.94690 1701 ft 103 kts 352°
2026-05-05 19:21 50.69132 -1.94955 1701 ft 103 kts 343°
2026-05-05 19:21 50.69814 -1.95308 1701 ft 103 kts 342°
2026-05-05 19:21 50.70488 -1.95675 1701 ft 103 kts 340°
2026-05-05 19:21 50.71160 -1.96092 1701 ft 103 kts 339°
2026-05-05 19:22 50.71829 -1.96510 1701 ft 103 kts 339°
2026-05-05 19:22 50.72495 -1.96925 1701 ft 103 kts 339°
2026-05-05 19:22 50.73165 -1.97343 1701 ft 103 kts 339°
2026-05-05 19:22 50.73834 -1.97760 1701 ft 103 kts 339°
2026-05-05 19:23 50.74499 -1.98174 1701 ft 103 kts 339°
2026-05-05 19:23 50.75177 -1.98596 1701 ft 103 kts 339°
2026-05-05 19:23 50.75879 -1.98625 1696 ft 103 kts 19°
2026-05-05 19:23 50.76400 -1.97862 1696 ft 106 kts 61°
2026-05-05 19:24 50.76617 -1.96743 1648 ft 111 kts 73°
2026-05-05 19:24 50.76741 -1.95517 1519 ft 112 kts 89°
2026-05-05 19:24 50.76646 -1.94331 1470 ft 105 kts 97°
2026-05-05 19:24 50.76511 -1.93187 1263 ft 106 kts 91°
2026-05-05 19:25 50.76648 -1.92105 1085 ft 100 kts 69°
2026-05-05 19:25 50.76859 -1.91067 935 ft 99 kts 70°
2026-05-05 19:25 50.77025 -1.90054 869 ft 86 kts 72°
2026-05-05 19:25 50.77163 -1.89183 749 ft 77 kts 71°
2026-05-05 19:26 50.77305 -1.88410 616 ft 67 kts 69°
2026-05-05 19:26 50.77419 -1.87731 440 ft 62 kts 70°
2026-05-05 19:26 50.77536 -1.87070 297 ft 62 kts 70°
2026-05-05 19:26 50.77643 -1.86429 212 ft 59 kts 69°
2026-05-05 19:27 50.77745 -1.85807 133 ft 57 kts 69°
2026-05-05 19:27 50.77845 -1.85211 68 ft 53 kts 68°
2026-05-05 19:27 50.77934 -1.84687 42 ft 45 kts 70°
2026-05-05 19:27 50.78015 -1.84249 42 ft 41 kts 72°
2026-05-05 19:28 50.78076 -1.83850 42 ft 33 kts 72°
2026-05-05 19:28 50.78144 -1.83492 42 ft 33 kts 59°
2026-05-05 19:28 50.78193 -1.83202 42 ft 26 kts 76°
2026-05-05 19:28 50.78272 -1.83135 42 ft 16 kts 294°
2026-05-05 19:29 50.78305 -1.83239 42 ft 0 kts 295°
2026-05-05 19:29 50.78310 -1.83246 42 ft 3 kts 307°
2026-05-05 19:29 50.78342 -1.83344 42 ft 13 kts 312°
2026-05-05 19:29 50.78414 -1.83340 42 ft 8 kts 40°
2026-05-05 19:30 50.78424 -1.83268 42 ft 5 kts 98°
2026-05-05 19:30 50.78399 -1.83224 42 ft 6 kts 154°
2026-05-05 19:30 50.78377 -1.83174 42 ft 5 kts 79°
2026-05-05 19:30 50.78389 -1.83138 42 ft 3 kts 45°
2026-05-05 19:31 50.78418 -1.83098 42 ft 6 kts 41°
2026-05-05 19:31 50.78437 -1.83106 42 ft 0 kts 252°
2026-05-05 19:31 50.78437 -1.83107 42 ft 0 kts 243°
2026-05-05 19:45 50.78615 -1.84347 42 ft 0 kts 243°
2026-05-05 19:45 50.78610 -1.84392 42 ft 0 kts 243°
2026-05-05 19:46 50.78583 -1.84450 42 ft 0 kts 180°
2026-05-05 19:46 50.78583 -1.84458 42 ft 0 kts 98°